Date,TemperatureHighF,TemperatureAvgF,TemperatureLowF,DewpointHighF,DewpointAvgF,DewpointLowF,HumidityHigh,HumidityAvg,HumidityLow,PressureMaxIn,PressureMinIn,WindSpeedMaxMPH,WindSpeedAvgMPH,GustSpeedMaxMPH,PrecipitationSumIn
2013-1-1,48,43,39,46,39,35,93,85,71,30.03,29.48,10,6,18,0.04
2013-1-2,51,43,35,49,41,33,95,92,87,30.30,30.03,9,4,16,0.00
2013-1-3,53,51,48,50,48,46,95,91,88,30.60,30.30,9,5,17,0.00
2013-1-4,51,49,47,48,46,44,92,87,82,30.63,30.58,11,6,20,0.00
2013-1-5,51,48,45,48,46,42,96,91,86,30.58,30.50,9,3,16,0.00
2013-1-6,47,45,42,46,44,41,100,95,92,30.50,30.38,5,2,13,0.01
2013-1-7,48,46,45,46,44,43,94,92,90,30.38,30.23,9,5,14,0.01
2013-1-8,53,50,47,48,47,44,94,89,82,30.25,30.17,10,5,20,0.02
2013-1-9,50,45,34,48,42,32,96,90,73,30.17,30.06,6,2,12,0.10
2013-1-10,39,36,32,37,34,30,95,92,89,30.06,29.91,5,1,9,0.01
2013-1-11,46,38,32,40,35,30,96,91,78,30.07,29.97,7,1,9,0.00
2013-1-12,41,38,34,37,34,29,95,85,63,29.97,29.83,15,7,23,0.11
2013-1-13,39,36,33,35,30,28,86,80,74,30.12,29.94,10,4,17,0.01
2013-1-14,38,34,32,36,32,28,96,91,83,30.09,29.61,12,4,21,0.18
2013-1-15,36,34,29,33,31,26,93,88,82,29.85,29.61,14,5,22,0.02
2013-1-16,35,30,27,31,28,25,95,92,84,30.00,29.82,4,1,9,0.00
2013-1-17,37,32,24,32,28,22,95,87,76,30.06,29.88,6,1,12,0.01
2013-1-18,35,31,29,29,28,26,93,87,75,29.87,29.42,13,7,21,0.01
2013-1-19,34,32,31,31,29,27,91,88,83,29.46,29.38,13,6,24,0.02
2013-1-20,32,31,30,30,28,26,94,90,83,29.46,29.26,9,4,18,0.02
2013-1-21,37,32,28,32,29,26,98,91,82,29.48,29.25,3,1,7,0.11
2013-1-22,37,32,24,34,29,23,96,90,79,29.66,29.48,14,5,26,0.14
2013-1-23,37,36,35,33,32,30,88,85,81,29.78,29.66,12,7,21,0.07
2013-1-24,36,35,34,33,30,27,92,82,70,30.12,29.78,8,2,16,0.01
2013-1-25,38,34,30,36,30,27,91,83,77,30.11,29.55,12,5,22,0.02
2013-1-26,46,42,36,43,38,34,95,88,76,29.81,29.54,15,6,24,0.20
2013-1-27,50,46,40,48,41,35,94,82,60,29.60,29.25,17,11,32,0.27
2013-1-28,48,42,35,44,38,33,92,87,80,29.80,29.59,17,8,31,0.02
2013-1-29,56,56,55,53,53,52,92,90,88,29.61,29.58,15,11,28,0.11
2013-1-30,54,49,45,47,41,38,94,75,58,30.02,29.56,19,12,33,0.20
2013-1-31,50,47,45,44,40,38,86,77,66,30.03,29.83,21,10,31,0.14
2013-2-1,47,43,39,42,39,36,93,87,77,29.89,29.44,12,4,18,0.20
2013-2-2,43,39,33,38,32,26,91,75,63,30.23,29.54,15,8,23,0.02
2013-2-3,49,40,31,46,37,26,94,86,74,30.23,29.89,12,4,23,0.00
2013-2-4,51,48,43,47,40,35,90,75,56,29.92,29.71,18,10,29,0.00
2013-2-5,44,40,36,39,33,28,91,76,56,29.71,29.31,21,10,47,0.16
2013-2-6,43,40,36,39,34,28,90,78,66,30.04,29.34,18,10,30,0.06
2013-2-7,43,38,34,36,31,27,91,78,62,30.09,29.97,11,6,17,0.02
2013-2-8,44,38,32,36,33,30,93,83,64,30.12,30.00,10,5,20,0.02
2013-2-9,39,37,35,36,34,31,93,89,81,30.14,29.85,9,2,20,0.02
2013-2-10,41,38,34,39,36,31,95,94,92,29.85,29.25,11,6,22,0.45
2013-2-11,35,34,33,33,32,31,95,94,93,29.75,29.26,8,5,14,0.39
2013-2-12,36,35,34,33,30,28,93,83,76,30.11,29.75,6,3,14,0.01
2013-2-13,38,35,34,36,30,25,93,80,66,30.18,29.99,10,5,20,0.01
2013-2-14,38,38,38,36,36,36,93,93,93,29.99,29.99,8,8,15,0.00
2013-2-15,52,46,41,46,37,35,92,72,61,30.18,30.09,9,3,14,0.00
2013-2-16,52,44,37,40,37,34,92,78,53,30.22,30.17,5,1,8,0.00
2013-2-17,51,40,31,41,35,29,96,84,50,30.19,30.08,10,3,20,0.01
2013-2-18,49,40,33,38,35,30,94,83,59,30.12,30.07,11,4,15,0.01
2013-2-19,53,38,28,39,32,26,95,81,52,30.11,30.03,2,0,6,0.00
2013-2-20,42,38,35,38,32,27,95,81,66,30.24,30.08,16,8,26,0.02
2013-2-21,36,35,33,28,24,22,72,65,58,30.24,30.15,14,9,24,0.01
2013-2-22,36,34,33,27,24,21,74,66,60,30.15,30.08,13,8,23,0.00
2013-2-23,36,35,33,28,25,23,83,68,59,30.19,30.08,9,5,20,0.00
2013-2-24,37,34,33,30,28,27,85,77,71,30.26,30.17,10,6,20,0.00
2013-2-25,40,38,35,36,33,29,88,84,77,30.36,30.24,12,7,22,0.00
2013-2-26,41,39,37,39,37,34,94,91,88,30.54,30.35,12,6,22,0.02
2013-2-27,45,39,36,37,34,33,93,84,69,30.55,30.46,10,6,21,0.01
2013-2-28,47,40,35,39,35,32,89,82,70,30.47,30.31,12,5,20,0.00
2013-3-1,44,40,37,41,35,31,94,81,66,30.39,30.34,11,6,20,0.02
2013-3-2,44,38,30,33,31,27,89,76,66,30.38,30.26,9,3,15,0.01
2013-3-3,48,37,27,38,32,25,94,84,64,30.27,30.09,12,4,20,0.00
2013-3-4,51,41,35,38,35,32,91,80,60,30.09,29.73,12,6,20,0.00
2013-3-5,62,45,31,46,38,29,95,78,53,29.73,29.56,8,2,14,0.00
2013-3-6,54,50,47,45,43,41,86,79,70,29.56,29.49,7,4,14,0.01
2013-3-7,50,48,46,48,46,43,95,93,86,29.49,29.35,7,3,14,0.23
2013-3-8,51,49,47,50,48,45,96,95,94,29.53,29.36,7,2,12,0.17
2013-3-9,47,44,39,46,41,35,95,91,84,29.65,29.52,6,2,12,0.05
2013-3-10,39,37,34,35,32,28,88,83,78,29.72,29.64,15,8,26,0.00
2013-3-11,34,32,29,29,24,20,81,74,62,29.74,29.70,22,14,39,0.00
2013-3-12,42,34,29,33,24,18,85,65,45,29.80,29.72,21,11,36,0.00
2013-3-13,46,38,33,32,30,26,88,73,46,29.92,29.77,12,6,20,0.00
2013-3-14,47,38,28,33,27,23,93,68,44,30.00,29.91,7,3,14,0.00
2013-3-15,46,44,37,43,40,26,92,86,64,29.91,29.54,17,11,25,0.15
2013-3-16,47,44,42,43,41,39,91,87,81,29.54,29.26,18,12,36,0.28
2013-3-17,45,41,34,42,38,32,96,90,81,29.30,29.14,10,4,20,0.17
2013-3-18,46,38,30,42,36,28,96,92,82,29.33,29.20,5,1,12,0.09
2013-3-19,49,41,37,39,37,34,94,85,68,29.49,29.33,8,2,13,0.02
2013-3-20,46,40,36,38,36,34,93,86,74,29.98,29.49,8,3,13,0.00
2013-3-21,45,40,34,36,33,31,90,79,64,30.01,29.90,13,7,23,0.02
2013-3-22,42,38,36,36,35,33,91,86,78,29.90,29.72,20,12,33,0.24
2013-3-23,38,35,34,35,33,32,94,92,89,29.85,29.73,14,9,25,0.36
2013-3-24,35,33,32,33,28,25,91,82,66,29.92,29.84,15,9,28,0.03
2013-3-25,35,34,33,27,25,23,74,70,65,29.95,29.90,16,10,26,0.00
2013-3-26,35,34,33,27,25,24,74,69,65,29.92,29.86,14,8,23,0.00
2013-3-27,41,35,31,28,26,24,82,69,55,29.87,29.83,10,6,20,0.00
2013-3-28,41,36,30,31,26,23,89,69,51,29.93,29.83,12,5,20,0.00
2013-3-29,43,36,29,28,26,23,83,66,47,29.91,29.76,12,5,20,0.00
2013-3-30,43,38,34,32,29,27,80,71,58,29.96,29.77,9,5,20,0.00
2013-3-31,43,36,28,29,26,-100,88,69,50,29.96,29.88,10,4,20,0.00
2013-4-1,44,38,34,30,27,24,81,67,49,29.88,29.82,18,9,29,0.00
2013-4-2,48,40,31,31,25,18,85,59,34,30.04,29.87,16,9,26,0.00
2013-4-3,41,37,33,31,27,24,86,66,54,30.04,29.97,18,9,29,0.00
2013-4-4,38,36,33,33,29,24,90,76,60,29.97,29.89,16,10,29,0.05
2013-4-5,47,40,35,31,28,24,79,64,41,30.10,29.88,14,10,28,0.05
2013-4-6,53,42,32,32,29,26,89,65,37,30.27,30.10,8,4,18,0.00
2013-4-7,53,42,29,34,28,24,92,62,33,30.26,29.87,9,3,20,0.00
2013-4-8,53,44,39,35,32,28,79,65,42,29.87,29.54,14,9,23,0.00
2013-4-9,50,43,39,42,39,35,92,84,72,29.54,29.36,12,6,20,0.08
2013-4-10,53,45,38,43,39,35,93,81,66,29.69,29.43,12,4,20,0.18
2013-4-11,56,47,43,48,44,41,94,88,70,29.47,29.34,12,5,24,0.38
2013-4-12,54,48,44,48,45,42,94,89,74,29.71,29.27,11,5,22,0.26
2013-4-13,53,48,39,50,45,37,94,89,73,29.88,29.71,13,7,23,0.28
2013-4-14,69,59,52,53,50,47,94,75,53,29.94,29.85,20,10,36,0.17
2013-4-15,60,55,49,49,47,45,86,76,65,30.04,29.93,12,8,22,0.00
2013-4-16,63,54,48,49,46,42,91,75,47,30.07,29.89,18,10,26,0.00
2013-4-17,67,55,48,52,49,45,93,82,57,30.06,29.75,15,8,28,0.00
2013-4-18,59,52,47,46,41,35,85,67,52,30.03,29.78,20,12,36,0.11
2013-4-19,58,50,44,42,40,34,85,69,41,30.47,30.06,12,7,21,0.11
2013-4-20,60,48,35,39,34,31,91,62,34,30.53,30.36,10,3,18,0.00
2013-4-21,60,47,33,42,35,30,91,65,38,30.36,30.01,9,4,18,0.00
2013-4-22,60,50,44,47,43,40,92,78,51,30.01,29.93,10,5,23,0.00
2013-4-23,72,59,49,51,48,46,91,71,45,30.19,29.96,9,5,17,0.00
2013-4-24,69,59,48,56,51,45,90,75,61,30.24,30.17,9,4,18,0.01
2013-4-25,74,60,51,57,51,48,93,75,45,30.22,30.00,13,5,23,0.01
2013-4-26,57,51,44,49,38,29,91,64,39,30.02,29.88,15,6,23,0.13
2013-4-27,54,45,39,40,36,32,86,72,51,30.09,29.87,13,5,22,0.02
2013-4-28,55,46,33,39,35,30,92,68,40,30.09,29.88,12,5,22,0.02
2013-4-29,59,51,46,43,38,33,87,62,42,30.14,29.87,12,7,21,0.00
2013-4-30,60,50,40,42,37,33,87,63,38,30.29,30.14,12,5,21,0.00
2013-5-1,65,52,40,42,37,32,88,62,32,30.29,30.13,10,4,17,0.00
2013-5-2,68,53,41,37,30,20,67,44,20,30.20,30.14,12,4,18,0.00
2013-5-3,69,55,39,46,40,34,86,59,35,30.16,30.01,12,4,21,0.00
2013-5-4,63,54,46,50,43,38,84,67,41,30.11,29.95,15,8,28,0.02
2013-5-5,69,57,44,52,47,40,88,70,52,30.18,30.11,7,3,15,0.02
2013-5-6,74,63,52,51,48,44,85,60,40,30.15,30.01,6,2,12,0.00
2013-5-7,74,60,46,51,46,42,90,61,37,30.06,29.88,13,3,18,0.00
2013-5-8,63,57,52,55,50,45,93,77,63,29.84,29.67,13,6,24,0.03
2013-5-9,56,50,44,47,43,41,90,78,56,29.82,29.66,23,9,39,0.07
2013-5-10,62,54,49,49,44,-100,87,75,53,29.91,29.66,13,10,26,0.07
2013-5-11,57,50,44,49,44,39,92,80,57,29.90,29.77,18,8,32,0.15
2013-5-12,60,50,42,51,42,-100,92,78,48,29.99,29.88,12,8,21,0.07
2013-5-13,59,53,48,51,44,38,93,71,48,29.89,29.78,15,9,32,0.03
2013-5-14,54,49,45,47,43,39,93,81,61,29.80,29.25,12,7,21,0.24
2013-5-15,58,48,44,44,41,38,88,76,50,29.53,29.13,17,9,33,0.27
2013-5-16,64,47,37,46,22,-100,95,71,40,29.54,29.45,7,2,18,0.04
2013-5-17,55,50,42,46,39,-100,94,77,66,29.79,29.54,8,3,16,0.02
2013-5-18,61,54,48,46,44,42,83,70,56,29.79,29.69,10,3,16,0.00
2013-5-19,67,57,47,50,47,44,90,71,53,29.87,29.75,7,2,15,0.00
2013-5-20,63,58,52,58,53,49,88,83,77,29.88,29.81,10,6,18,0.01
2013-5-21,62,57,54,56,51,48,87,79,66,30.05,29.88,9,5,18,0.01
2013-5-22,59,53,49,48,45,37,89,73,52,30.08,30.00,13,5,21,0.00
2013-5-23,54,48,43,39,37,33,78,66,49,30.00,29.86,16,8,28,0.00
2013-5-24,48,45,42,45,40,36,90,85,75,29.95,29.61,17,8,24,0.25
2013-5-25,61,52,41,43,40,38,92,66,44,30.14,30.00,9,5,18,0.23
2013-5-26,70,57,42,45,40,36,86,56,36,30.11,29.94,11,4,17,0.00
2013-5-27,66,55,43,45,41,34,86,60,33,29.94,29.61,16,6,28,0.00
2013-5-28,54,52,50,51,48,43,94,86,66,29.61,29.46,9,1,13,0.61
2013-5-29,56,52,46,52,48,44,92,88,76,29.74,29.54,8,3,17,0.43
2013-5-30,60,55,52,53,51,50,94,87,76,29.98,29.72,10,5,16,0.16
2013-5-31,72,61,52,56,52,48,87,74,52,30.08,29.97,8,5,15,0.04
2013-6-1,66,59,51,52,46,43,78,62,45,30.28,30.08,10,6,22,0.00
2013-6-2,68,58,49,47,44,42,84,61,41,30.41,30.28,8,4,20,0.00
2013-6-3,69,59,46,47,44,42,91,62,42,30.45,30.37,10,5,20,0.00
2013-6-4,71,60,47,49,44,39,81,56,39,30.40,30.19,13,7,24,0.00
2013-6-5,73,58,48,51,47,43,84,70,45,30.21,30.06,12,5,16,0.00
2013-6-6,74,60,48,55,48,44,85,67,48,30.16,30.10,10,6,18,0.00
2013-6-7,70,59,49,54,48,44,88,69,52,30.20,30.14,10,6,22,0.15
2013-6-8,67,56,49,48,46,44,84,70,50,30.19,30.04,14,9,23,0.02
2013-6-9,60,55,51,48,46,44,81,72,62,30.06,29.94,13,6,20,0.00
2013-6-10,61,56,52,48,45,42,73,67,58,29.98,29.93,6,2,13,0.00
2013-6-11,64,56,48,60,51,44,87,83,73,29.95,29.87,10,4,18,0.00
2013-6-12,63,60,57,59,56,53,92,86,76,29.88,29.79,14,9,25,0.06
2013-6-13,62,58,55,56,52,47,91,79,64,30.01,29.76,15,10,33,0.06
2013-6-14,68,58,48,52,48,43,88,73,42,30.04,29.80,12,6,22,0.02
2013-6-15,63,57,52,54,50,45,90,78,58,29.86,29.67,20,10,35,0.22
2013-6-16,67,59,52,53,50,47,87,72,56,29.94,29.85,9,4,17,0.02
2013-6-17,71,62,55,53,50,48,82,66,49,29.95,29.88,13,7,23,0.00
2013-6-18,71,64,56,62,57,51,88,77,65,29.95,29.88,7,3,15,0.00
2013-6-19,82,70,60,64,60,57,92,73,46,29.96,29.89,13,2,21,0.00